Location: *
(46.3500°N, 10.9000°E)
Time: 21:25:20
(UTC+00:00)

A-11 Canister half - Pass Details

Date: 24 April 2021
Orbit: 1526 x 1682 km, 47.3° (Epoch: 13 May)

Event Time Altitude Azimuth Distance (km) Brightness Sun altitude
Rises 11:50:54 0° 199° (SSW) 4,799 12.1 55.8°
Reaches altitude 10° 11:54:27 10° 190° (S) 3,840 11.9 55.6°
Maximum altitude 12:02:36 31° 133° (SE) 2,608 10.9 55.2°
Drops below altitude 10° 12:10:56 10° 77° (ENE) 3,936 11.0 54.6°
Sets 12:14:35 0° 67° (ENE) 4,936 11.4 54.4°
